Погода в Донском

Россия / Ростовская область     46°50′49″N   40°32′55″E
темп.,
°C
ветер,
м/с
пор.,
м/с
влажн.,
%
обл.,
%
осадки,
мм/ч
давл.,
гПа
погр.,
м
14 апреля, ср
ср1400:00+9ссв3693100 0.0 1020143
03:00+9с4895100 0.1 1018180
06:00+8ссз239898 0.0 101745
09:00+13ююз1175100 0.0 1016423
12:00+15зюз436594 0.0 10161238
15:00+13з677962 0.1 1017680
18:00+12з467782 0.0 1017514
21:00+9з358998 0.0 1018112
15 апреля, чт
чт1500:00+8з22915 0.0 101732
03:00+7зюз229213 0.0 101720
06:00+7ю11915 0.0 101810
09:00+12ююз23735 0.0 1018438
12:00+16юз34530 0.0 10171208
15:00+18зюз344935 0.0 10161514
18:00+16з2363100 0.0 101667
21:00+11з338592 0.5 101844
16 апреля, пт
пт1600:00+10вюв228730 0.6 101625
03:00+9зюз2294100 1.2 101727
06:00+9з2296100 0.0 101746
09:00+13з2363100 0.0 1018420
12:00+16юз335293 0.0 10181013
15:00+15зюз7761100 0.1 10181195
18:00+10сз2390100 5.3 1019195
21:00+9зюз239396 5.3 102091
17 апреля, сб
сб1700:00+9зюз2594100 0.1 1020141
03:00+8з259269 2.9 1020238
06:00+6юз36945 0.0 1021149
09:00+11зюз45775 0.0 1021610
12:00+14зюз56535 0.1 10211749
15:00+15зюз564827 0.1 10211843
18:00+12зсз56675 0.0 1022609
21:00+7сз34825 0.0 102385
18 апреля, вс
вс1800:00+6сз228432 0.0 102213
03:00+6ссв2283100 0.0 102217
06:00+6в2282100 0.0 102138
09:00+10в3468100 0.0 1021392
12:00+11вюв3472100 0.1 1020607
15:00+12вюв2379100 0.8 1020440
18:00+9всв2690100 1.6 1020266
21:00+9всв3695100 4.3 1020206